SCP
-0 -0 -0 -0 0 -0 -0 -0 -0 0 0 0 0 0 -0 0 0 0 -0 -0 -0 0 -0 0 0 0 0 -0 0 0 0 0 0 0 0 0 -0 -0 -0 -0 -0 -0 0 0 0 0 0 -0 -0
-0 -0 -0 -0 0 0 0 0 0 0 0 -0 -0 0 -0 0 0 -0 -0 -0 0 0 0 0 0 0 0 0 0 0 -0 0 0 0 0 0 0 -0 -0 -0 0 0 0 0 0 0 -0 -0 -0
-0 0 0 0 0 0 -0 -0 0 0 0 -0 0 0 -0 0 -0 -0 -0 -0 -0 -0 0 0 0 0 0 0 0 0 0 0 0 0 0 0 -0 0 0 0 0 0 0 0 0 0 0 0 0
0 0 0 0 0 0 0 0 -0 0 -0 -0 -0 -0 0 -0 -0 -0 0 0 -0 -0 0 0 0 0 0 0 0 0 0 0 0 0 0 0 0 -0 -0 -0 0 0 0 0 0 0 0 0 0
0 0 0 0 0 0 0 -0 -0 0 0 -0 0 0 -0 0 0 -0 0 0 0 -0 0 0 0 0 0 0 0 0 0 0 0 0 0 0 -0 -0 -0 -0 0 0 0 0 0 0 0 0 0
-0 0 0 0 0 0 0 0 -0 0 -0 -0 -0 0 -0 0 -0 0 0 0 -0 -0 0 0 0 0 0 0 0 -0 0 0 0 0 0 0 0 0 -0 -0 -0 0 0 0 0 0 0 0 0
0 -0 -0 0 -0 0 0 0 -0 -0 -0 0 0 0 -0 -0 -0 0 0 -0 0 -0 -0 0 0 0 0 0 0 0 0 0 0 -0 -0 0 -0 -0 -0 -0 0 0 0 0 0 0 0 0 0
0 0 0 -0 -0 0 -0 0 -0 -0 -0 0 -0 0 -0 0 0 -0 -0 -0 -0 -0 -0 0 0 0 0 0 0 0 0 0 0 0 -0 0 0 -0 -0 0 0 0 0 0 0 0 0 0 0
0 0 0 0 0 0 0 0 0 0 0 -0 0 0 -0 0 0 -0 -0 -0 -0 -0 -0 -0 0 0 -0 0 0 0 0 0 0 0 0 0 0 0 0 0 0 0 0 0 0 0 0 0 0
0 0 -0 0 0 0 0 0 0 -0 0 -0 -0 -0 -0 -0 -0 -0 -0 0 -0 -0 -0 -0 0 0 0 0 0 0 0 0 0 0 0 0 0 0 0 0 0 0 0 0 0 0 0 0 0
-0 -0 0 0 0 -0 0 0 0 -0 0 -0 -0 -0 -0 -0 0 0 0 0 0 0 -0 -0 0 0 0 0 0 0 0 0 0 0 0 0 0 0 0 0 0 0 0 0 0 0 1 0 0
0 0 0 -0 -0 -0 0 0 0 -0 0 -0 -0 -0 -0 -0 0 0 0 -0 -0 -0 -0 -0 -0 0 0 0 0 0 0 0 0 0 0 0 0 0 0 0 0 0 0 0 0 0 0 0 0
0 0 -0 -0 0 0 0 0 0 -0 -0 -0 -0 -0 -0 -0 0 -0 0 -0 0 -0 -0 -0 -0 -0 0 0 0 0 0 0 0 0 0 0 0 0 0 0 0 0 0 0 0 0 0 0 0
-0 -0 -0 -0 -0 0 -0 -0 0 -0 -0 -0 -0 -0 -0 -0 0 0 0 -0 -0 -0 -0 -0 -0 -0 0 0 0 0 0 0 0 0 0 0 0 0 0 0 0 0 0 0 0 0 0 0 0
-0 -0 0 -0 0 0 -0 -0 0 0 -0 -0 -0 -0 -0 0 0 -0 0 -0 -0 0 0 0 -0 -0 -0 0 0 0 -0 0 0 0 0 0 0 0 0 0 0 0 0 0 0 0 0 0 -0
0 0 -0 0 -0 0 0 -0 0 0 -0 -0 -0 -0 -0 -0 -0 -0 0 0 -0 0 0 -0 -0 0 0 -0 -0 0 0 -0 0 0 0 0 0 0 0 0 0 0 0 0 0 0 0 0 0
-0 0 0 -0 -0 0 0 -0 -0 0 0 -0 -0 -0 -0 -0 -0 -0 0 0 0 0 -0 -0 -0 0 -0 -0 -0 -0 0 0 0 0 0 0 0 0 0 0 0 0 0 0 0 0 -0 -0 -0
0 0 0 -0 -0 0 0 -0 0 0 0 -0 0 -0 -0 -0 -0 -0 -0 0 -0 -0 -0 -0 -0 -0 -0 -0 0 0 0 0 0 0 0 0 0 0 0 0 0 0 0 0 0 0 0 -0 -0
-0 0 0 -0 0 -0 -0 -0 -0 -0 0 0 0 -0 -0 -0 -0 -0 -0 0 -0 -0 0 -0 0 -0 0 0 0 -0 0 -0 0 0 0 0 0 0 0 0 0 0 0 0 0 0 -0 -0 0
-0 -0 0 -0 0 -0 -0 0 -0 -0 -0 -0 0 0 -0 0 -0 -0 -0 -0 -0 -0 0 -0 0 0 0 0 0 -0 -0 -0 0 0 0 0 0 0 0 0 0 0 0 0 0 0 0 -0 -0
0 0 -0 0 -0 0 -0 -0 -0 0 0 0 0 0 0 0 -0 0 -0 -0 -0 -0 -0 -0 0 0 0 -0 0 0 0 0 0 0 0 0 0 0 0 0 0 0 0 0 0 0 0 -0 0
0 -0 -0 -0 0 0 -0 0 0 -0 -0 0 0 0 0 -0 0 0 -0 -0 -0 -0 -0 -0 0 0 -0 0 0 0 0 0 0 0 0 0 0 0 0 0 0 0 0 0 0 0 0 -0 0
-0 -0 -0 -0 0 0 0 0 -0 -0 0 -0 0 0 0 -0 0 -0 -0 -0 -0 0 -0 -0 0 0 0 0 0 0 -0 -0 0 0 0 0 0 0 0 0 -0 0 0 0 0 0 0 -0 0
-0 0 0 0 0 0 -0 0 0 0 -0 -0 0 0 0 0 -0 0 0 0 0 0 0 -0 0 0 0 0 -0 -0 -0 -0 -0 -0 0 0 0 0 0 0 -0 0 0 0 0 0 0 -0 0
0 0 0 0 0 -0 0 -0 0 -0 -0 0 -0 -0 0 0 0 0 0 0 0 0 0 0 0 0 0 0 0 -0 -0 -0 -0 -0 -0 -0 0 0 0 0 0 0 0 0 0 0 -0 0 0
0 0 0 0 0 0 0 -0 -0 -0 -0 0 -0 0 0 0 0 0 0 0 0 0 0 -0 0 0 0 0 0 -0 -0 -0 -0 -0 -0 -0 0 0 0 0 0 0 0 0 0 0 0 0 0
0 0 0 0 0 0 0 -0 -0 -0 -0 0 -0 0 0 0 -0 0 0 0 0 0 0 -0 0 0 0 0 0 -0 -0 -0 -0 -0 -0 -0 -0 -0 0 -0 -0 -0 -0 0 0 0 0 0 0
0 0 0 0 0 0 0 0 -0 -0 -0 -0 0 0 0 0 0 0 0 0 0 0 0 0 0 0 0 0 0 0 -0 -0 -0 -0 -0 -0 -0 -0 -0 -0 -0 -0 -0 -0 -0 0 0 0 0
0 0 0 0 0 0 0 0 -0 -0 -0 -0 -0 -0 -0 0 0 -0 0 0 0 0 0 0 0 0 0 0 0 0 -0 -0 -0 -0 -0 -0 -0 -0 -0 -0 0 -0 -0 -0 -0 0 0 -0 0
0 0 0 0 0 0 0 0 -0 -0 -0 -0 -0 -0 -0 0 0 0 0 0 0 0 0 0 0 -0 0 0 0 0 -0 -0 -0 -0 0 0 -0 0 -0 0 0 0 -0 0 -0 -0 0 -0 0
Wind_Speed_500mb
8 12 8 4 4 8 5 6 6 9 9 4 17 9 20 7 1 6 33 20 22 28 26 31 30 28 28 27 28 27 31 35 30 29 26 22 18 26 23 24 27 29 28 27 29 30 30 33 33
11 4 3 3 8 4 5 7 7 6 13 34 26 24 17 8 9 37 35 30 29 34 35 30 30 28 25 25 23 26 34 36 32 27 23 20 20 26 25 24 25 26 29 29 29 28 30 31 31
9 7 5 7 5 5 6 6 8 28 29 23 13 18 10 7 37 48 42 37 36 36 36 35 37 31 27 24 22 26 27 28 26 23 20 19 17 18 19 20 23 27 31 30 28 27 28 26 25
13 8 9 9 10 5 6 9 19 14 34 37 34 18 18 7 32 35 48 39 38 37 34 32 31 28 27 23 22 23 24 27 27 23 22 21 22 24 26 27 26 29 34 29 28 28 32 27 28
7 9 8 9 5 10 13 23 30 4 11 36 28 12 16 22 31 41 44 40 34 35 32 28 25 23 22 26 20 21 25 27 26 27 28 25 26 28 33 34 32 31 30 27 25 26 25 22 22
13 5 8 7 11 11 6 27 38 15 25 35 36 23 6 22 38 39 40 40 33 33 31 28 24 21 19 23 21 25 29 29 28 27 30 29 28 30 30 30 30 30 24 22 22 25 23 22 19
12 5 11 10 5 7 7 24 39 26 31 15 30 10 20 40 36 39 37 36 33 30 28 26 24 22 21 21 21 21 23 27 28 30 27 26 28 28 24 21 21 22 21 21 24 28 22 21 19
10 3 11 8 13 9 5 9 4 30 9 28 44 13 19 48 41 38 31 36 33 31 27 25 23 21 20 21 21 22 22 26 25 26 26 26 26 28 27 25 24 23 24 25 29 28 23 21 15
8 7 3 10 17 6 9 9 7 8 33 21 1 50 56 57 47 44 42 40 36 33 29 27 24 22 22 25 23 20 22 26 28 30 31 28 28 27 25 25 25 26 27 26 26 28 25 19 14
6 6 3 10 13 11 8 7 16 14 32 8 40 40 60 62 54 55 51 46 42 37 35 29 24 25 24 24 25 26 27 28 29 33 33 29 27 26 25 26 29 32 33 32 32 30 25 19 11
8 1 4 11 12 27 15 8 19 30 13 44 64 68 70 65 58 51 47 43 40 38 36 34 29 29 30 35 35 32 29 29 31 30 28 25 23 23 26 30 37 38 36 35 30 25 20 14 7
4 8 10 25 34 23 17 12 14 42 13 41 66 70 70 63 63 56 47 44 44 42 40 35 33 32 36 31 26 22 24 25 24 25 26 23 21 20 20 24 25 24 22 19 16 13 9 4 3
5 10 17 27 23 21 20 11 8 21 39 45 63 66 65 63 54 49 44 41 40 44 39 38 38 36 32 24 19 19 17 19 18 25 22 23 22 17 18 13 14 16 15 15 19 22 23 18 7
18 23 16 19 23 18 18 15 6 32 59 51 61 62 64 64 58 54 49 37 41 38 37 45 40 36 25 20 23 18 16 22 21 22 20 17 13 13 15 14 12 13 17 18 20 24 25 22 21
33 12 6 6 7 6 8 4 5 14 33 52 60 65 64 67 62 57 52 36 43 43 33 43 37 31 32 21 17 18 16 10 23 18 14 18 6 20 13 14 15 22 24 21 20 17 11 9 9
8 10 5 7 10 7 7 4 3 26 30 48 54 57 63 62 61 54 53 41 39 38 30 39 35 24 35 29 23 17 19 19 15 17 15 22 17 22 22 22 19 22 25 20 23 16 13 8 2
9 3 11 13 12 5 1 7 10 31 26 36 36 47 66 66 58 58 57 50 44 30 28 42 36 27 29 26 23 25 22 16 13 14 19 25 32 31 25 28 21 20 17 14 12 17 12 5 13
12 7 6 8 5 7 4 4 2 23 31 38 43 47 52 66 63 60 62 55 46 38 30 45 35 33 36 27 28 25 19 16 16 18 33 28 34 22 25 22 19 16 14 5 9 12 16 16 11
12 8 7 7 11 8 11 8 15 18 13 14 32 60 48 63 59 60 61 58 52 47 40 42 36 35 38 30 32 27 19 14 19 22 32 16 22 24 21 18 18 12 13 10 12 15 8 8 11
17 12 8 2 10 11 13 13 11 25 20 28 21 49 48 46 67 65 55 62 63 52 46 49 38 37 41 33 26 23 16 13 18 20 20 17 24 21 17 20 19 13 8 10 10 8 7 12 8
6 14 11 7 8 9 3 12 9 10 23 37 38 24 39 48 70 67 63 56 67 58 53 49 45 33 40 40 31 26 29 19 18 22 16 20 21 15 16 19 23 20 15 17 14 6 6 8 9
10 16 16 14 9 2 1 6 10 11 17 26 43 42 31 38 54 54 64 68 73 61 56 51 49 37 42 45 39 37 31 25 24 23 16 16 18 14 12 11 29 25 24 21 22 13 13 8 10
17 31 23 21 7 2 3 5 11 8 7 12 29 41 49 44 43 55 60 69 73 66 57 52 52 45 43 55 49 44 33 26 21 21 20 20 23 19 10 6 35 17 24 25 29 17 15 9 7
18 18 17 12 8 6 4 6 8 5 6 9 29 47 55 53 48 56 58 75 77 72 60 54 55 51 46 43 47 46 37 30 27 28 23 20 23 21 16 13 27 22 24 24 21 17 19 18 12
16 13 7 7 3 11 7 8 14 9 13 13 30 54 67 69 58 62 67 78 81 72 63 58 57 55 52 49 52 48 44 39 29 32 33 27 25 27 22 18 21 25 18 22 25 24 20 18 14
7 15 11 8 6 6 6 7 9 10 8 11 24 41 53 69 72 62 76 77 80 72 69 66 61 56 53 55 54 54 52 45 40 35 36 34 29 23 23 23 19 20 22 19 29 22 21 19 16
6 4 8 14 6 4 5 11 7 5 6 11 27 24 46 54 67 71 73 82 79 76 71 68 65 59 57 55 56 57 55 50 47 44 39 36 33 30 27 26 22 16 19 21 22 22 26 23 19
6 10 6 7 8 6 8 8 8 10 8 8 12 17 31 43 46 59 70 72 72 75 69 63 66 61 56 57 56 62 61 55 53 53 48 43 38 34 32 38 34 26 23 27 26 21 21 20 25
5 5 14 11 6 9 3 11 10 15 4 11 13 24 18 32 43 51 59 75 75 69 63 60 66 65 59 54 54 60 67 63 56 58 47 49 43 39 30 36 42 37 30 29 29 26 27 24 24
6 7 9 9 6 3 6 10 6 17 3 10 9 10 28 25 39 35 46 53 76 72 71 71 68 66 64 54 55 55 61 69 62 59 56 54 50 45 35 30 42 37 34 28 29 27 27 26 26
Wind_Direction_500mb
42 341 349 302 64 56 27 37 101 116 152 189 149 126 115 57 50 177 138 142 145 135 132 133 132 131 134 133 139 146 150 143 144 144 138 129 133 156 142 130 124 127 123 123 118 114 112 110 107
75 16 13 3 83 73 34 16 104 154 121 121 88 115 55 64 99 140 145 139 132 126 122 121 119 118 118 123 119 120 137 141 138 137 130 126 120 122 133 127 124 127 126 122 120 115 107 104 112
56 62 68 73 37 64 110 80 84 119 109 117 98 73 79 91 130 144 151 139 131 129 127 121 114 114 116 113 118 117 123 128 132 131 124 123 118 125 127 126 127 134 131 133 131 119 116 116 114
172 101 68 69 56 36 80 48 133 151 87 97 113 76 82 290 138 152 153 145 137 130 129 126 129 128 114 107 104 114 118 118 124 126 117 118 121 116 124 126 126 130 135 137 131 124 119 113 106
53 51 63 70 36 359 11 3 359 224 84 97 113 103 98 149 149 150 157 157 151 144 140 135 134 130 127 123 119 117 120 119 122 119 118 116 104 107 116 123 127 130 135 135 135 130 122 114 111
51 32 69 53 40 2 34 329 323 124 113 109 101 100 76 160 155 150 156 160 160 152 146 141 137 129 123 123 124 123 117 114 115 111 111 112 100 104 107 110 121 124 127 137 136 132 131 120 104
93 46 108 120 93 336 32 292 262 138 128 113 126 86 145 158 161 151 152 164 163 155 145 143 135 138 136 132 128 120 120 111 115 118 118 104 102 101 105 111 113 117 126 135 137 136 125 113 108
91 84 119 135 169 215 162 217 102 128 81 133 121 153 170 165 162 160 161 162 160 155 154 148 143 141 146 141 137 134 130 124 117 121 118 109 103 103 104 105 110 121 124 129 134 137 129 118 115
67 58 206 157 153 193 182 262 103 124 137 158 240 159 158 156 158 163 162 163 163 160 156 149 146 142 142 144 141 139 131 130 123 123 124 119 113 107 107 111 119 117 117 121 129 140 134 134 126
144 136 221 167 153 134 107 307 144 122 177 111 132 151 158 159 163 158 162 166 167 163 158 153 150 150 147 143 133 136 137 137 132 133 129 127 124 120 113 113 111 111 115 121 129 139 148 147 145
104 216 128 106 135 124 121 262 164 166 226 165 153 158 162 165 167 164 162 163 161 162 161 156 155 150 143 136 135 131 131 135 137 137 136 136 127 117 114 108 111 114 118 123 128 132 135 140 131
112 280 147 130 133 147 157 283 220 187 187 173 162 162 166 171 174 172 165 163 165 163 157 158 156 157 152 151 148 145 138 150 152 148 141 137 123 112 111 118 121 118 122 128 121 117 104 94 327
75 63 96 129 141 132 157 357 8 88 159 175 165 165 172 174 179 177 175 171 167 167 166 160 155 158 168 176 166 147 142 161 159 151 144 137 131 131 124 122 130 121 129 107 94 84 82 78 93
116 102 117 120 121 137 159 206 106 161 152 161 166 170 179 178 182 182 181 175 179 170 171 164 160 162 169 176 158 148 142 150 152 155 145 143 173 159 144 133 137 141 144 120 102 92 82 79 68
120 95 33 142 107 140 131 77 99 147 161 164 171 174 182 187 184 187 184 174 181 185 186 186 180 192 195 194 188 191 160 175 190 182 163 180 166 177 176 152 154 144 144 142 133 114 118 94 64
47 353 14 136 76 129 155 175 166 183 173 178 182 190 187 186 196 190 195 181 169 172 180 185 182 201 199 201 202 207 192 159 137 185 179 176 174 164 166 165 161 150 149 149 136 123 115 125 165
15 247 317 347 156 55 133 146 175 162 171 175 176 175 188 185 194 199 192 185 173 167 160 170 174 163 165 170 181 181 174 167 156 139 156 143 161 153 163 164 171 159 163 165 155 139 153 172 155
195 200 236 260 124 140 89 118 226 172 195 157 168 173 178 185 183 191 192 186 183 177 163 171 172 172 170 170 183 188 182 187 170 151 141 143 155 161 154 166 167 158 164 179 191 191 200 233 207
175 145 173 212 154 126 197 220 185 220 165 201 151 167 176 186 190 185 191 190 188 185 175 178 182 188 192 183 187 195 178 166 174 158 166 145 153 149 157 165 172 155 153 145 161 150 123 159 203
180 138 207 234 183 188 171 210 186 180 196 207 200 171 171 181 179 184 190 195 194 188 183 180 185 200 202 200 202 201 181 179 177 159 173 166 162 156 153 177 185 181 196 215 177 158 134 168 182
162 188 190 181 174 28 334 331 156 200 201 191 220 202 187 186 182 186 195 201 198 193 191 189 188 196 201 203 207 199 196 209 212 192 180 164 154 162 163 187 197 193 194 216 236 169 176 148 158
218 166 170 136 89 200 337 284 294 159 184 190 201 209 211 197 192 199 196 198 201 202 199 199 191 191 197 202 217 211 201 201 198 203 206 194 175 182 179 194 187 194 211 225 223 221 221 196 194
226 160 161 110 66 57 298 86 269 118 196 204 217 213 213 206 202 196 197 198 197 201 200 202 199 197 199 208 210 211 207 208 196 213 210 210 195 195 191 222 175 169 195 204 213 222 199 176 121
103 85 47 55 36 357 250 133 309 355 326 245 202 198 212 209 201 202 202 199 200 201 201 202 201 204 208 208 207 204 209 208 214 219 206 200 202 210 202 177 188 190 191 192 197 213 205 217 215
74 78 38 10 19 222 126 113 247 265 267 275 198 202 204 208 205 196 197 200 202 203 206 205 208 211 211 210 211 212 210 213 213 213 221 212 211 211 206 194 188 201 206 205 216 215 214 213 212
129 143 149 173 195 252 142 230 255 207 250 63 193 210 196 198 204 204 198 200 201 208 209 209 212 215 217 218 218 221 218 215 219 220 219 226 226 223 216 215 198 201 209 204 202 213 223 231 233
185 83 162 103 7 55 273 291 278 204 224 16 126 156 188 196 203 204 203 202 205 210 216 217 217 220 223 223 225 221 222 220 217 220 221 222 228 231 227 212 210 215 208 212 215 232 242 241 237
126 156 79 21 137 218 291 280 244 253 239 137 59 119 184 197 200 210 209 207 212 215 218 220 223 222 226 226 228 224 224 227 221 223 231 226 221 219 236 225 225 225 230 230 233 240 256 255 249
9 78 55 106 103 151 172 268 223 242 137 113 161 139 150 186 203 214 215 217 219 213 218 222 222 222 222 228 229 227 225 227 226 225 227 215 217 224 239 242 231 227 233 235 242 253 262 258 257
164 127 126 116 221 104 135 272 265 252 72 79 258 184 121 153 189 210 220 230 221 220 222 231 226 229 225 225 226 230 226 226 229 225 225 221 224 230 237 244 217 227 234 237 244 252 258 260 272
Wind_Speed_850mb
8 12 8 4 4 8 5 6 6 9 9 4 17 9 20 7 1 6 33 20 22 28 26 31 30 28 28 27 28 27 31 35 30 29 26 22 18 26 23 24 27 29 28 27 29 30 30 33 33
11 4 3 3 8 4 5 7 7 6 13 34 26 24 17 8 9 37 35 30 29 34 35 30 30 28 25 25 23 26 34 36 32 27 23 20 20 26 25 24 25 26 29 29 29 28 30 31 31
9 7 5 7 5 5 6 6 8 28 29 23 13 18 10 7 37 48 42 37 36 36 36 35 37 31 27 24 22 26 27 28 26 23 20 19 17 18 19 20 23 27 31 30 28 27 28 26 25
13 8 9 9 10 5 6 9 19 14 34 37 34 18 18 7 32 35 48 39 38 37 34 32 31 28 27 23 22 23 24 27 27 23 22 21 22 24 26 27 26 29 34 29 28 28 32 27 28
7 9 8 9 5 10 13 23 30 4 11 36 28 12 16 22 31 41 44 40 34 35 32 28 25 23 22 26 20 21 25 27 26 27 28 25 26 28 33 34 32 31 30 27 25 26 25 22 22
13 5 8 7 11 11 6 27 38 15 25 35 36 23 6 22 38 39 40 40 33 33 31 28 24 21 19 23 21 25 29 29 28 27 30 29 28 30 30 30 30 30 24 22 22 25 23 22 19
12 5 11 10 5 7 7 24 39 26 31 15 30 10 20 40 36 39 37 36 33 30 28 26 24 22 21 21 21 21 23 27 28 30 27 26 28 28 24 21 21 22 21 21 24 28 22 21 19
10 3 11 8 13 9 5 9 4 30 9 28 44 13 19 48 41 38 31 36 33 31 27 25 23 21 20 21 21 22 22 26 25 26 26 26 26 28 27 25 24 23 24 25 29 28 23 21 15
8 7 3 10 17 6 9 9 7 8 33 21 1 50 56 57 47 44 42 40 36 33 29 27 24 22 22 25 23 20 22 26 28 30 31 28 28 27 25 25 25 26 27 26 26 28 25 19 14
6 6 3 10 13 11 8 7 16 14 32 8 40 40 60 62 54 55 51 46 42 37 35 29 24 25 24 24 25 26 27 28 29 33 33 29 27 26 25 26 29 32 33 32 32 30 25 19 11
8 1 4 11 12 27 15 8 19 30 13 44 64 68 70 65 58 51 47 43 40 38 36 34 29 29 30 35 35 32 29 29 31 30 28 25 23 23 26 30 37 38 36 35 30 25 20 14 7
4 8 10 25 34 23 17 12 14 42 13 41 66 70 70 63 63 56 47 44 44 42 40 35 33 32 36 31 26 22 24 25 24 25 26 23 21 20 20 24 25 24 22 19 16 13 9 4 3
5 10 17 27 23 21 20 11 8 21 39 45 63 66 65 63 54 49 44 41 40 44 39 38 38 36 32 24 19 19 17 19 18 25 22 23 22 17 18 13 14 16 15 15 19 22 23 18 7
18 23 16 19 23 18 18 15 6 32 59 51 61 62 64 64 58 54 49 37 41 38 37 45 40 36 25 20 23 18 16 22 21 22 20 17 13 13 15 14 12 13 17 18 20 24 25 22 21
33 12 6 6 7 6 8 4 5 14 33 52 60 65 64 67 62 57 52 36 43 43 33 43 37 31 32 21 17 18 16 10 23 18 14 18 6 20 13 14 15 22 24 21 20 17 11 9 9
8 10 5 7 10 7 7 4 3 26 30 48 54 57 63 62 61 54 53 41 39 38 30 39 35 24 35 29 23 17 19 19 15 17 15 22 17 22 22 22 19 22 25 20 23 16 13 8 2
9 3 11 13 12 5 1 7 10 31 26 36 36 47 66 66 58 58 57 50 44 30 28 42 36 27 29 26 23 25 22 16 13 14 19 25 32 31 25 28 21 20 17 14 12 17 12 5 13
12 7 6 8 5 7 4 4 2 23 31 38 43 47 52 66 63 60 62 55 46 38 30 45 35 33 36 27 28 25 19 16 16 18 33 28 34 22 25 22 19 16 14 5 9 12 16 16 11
12 8 7 7 11 8 11 8 15 18 13 14 32 60 48 63 59 60 61 58 52 47 40 42 36 35 38 30 32 27 19 14 19 22 32 16 22 24 21 18 18 12 13 10 12 15 8 8 11
17 12 8 2 10 11 13 13 11 25 20 28 21 49 48 46 67 65 55 62 63 52 46 49 38 37 41 33 26 23 16 13 18 20 20 17 24 21 17 20 19 13 8 10 10 8 7 12 8
6 14 11 7 8 9 3 12 9 10 23 37 38 24 39 48 70 67 63 56 67 58 53 49 45 33 40 40 31 26 29 19 18 22 16 20 21 15 16 19 23 20 15 17 14 6 6 8 9
10 16 16 14 9 2 1 6 10 11 17 26 43 42 31 38 54 54 64 68 73 61 56 51 49 37 42 45 39 37 31 25 24 23 16 16 18 14 12 11 29 25 24 21 22 13 13 8 10
17 31 23 21 7 2 3 5 11 8 7 12 29 41 49 44 43 55 60 69 73 66 57 52 52 45 43 55 49 44 33 26 21 21 20 20 23 19 10 6 35 17 24 25 29 17 15 9 7
18 18 17 12 8 6 4 6 8 5 6 9 29 47 55 53 48 56 58 75 77 72 60 54 55 51 46 43 47 46 37 30 27 28 23 20 23 21 16 13 27 22 24 24 21 17 19 18 12
16 13 7 7 3 11 7 8 14 9 13 13 30 54 67 69 58 62 67 78 81 72 63 58 57 55 52 49 52 48 44 39 29 32 33 27 25 27 22 18 21 25 18 22 25 24 20 18 14
7 15 11 8 6 6 6 7 9 10 8 11 24 41 53 69 72 62 76 77 80 72 69 66 61 56 53 55 54 54 52 45 40 35 36 34 29 23 23 23 19 20 22 19 29 22 21 19 16
6 4 8 14 6 4 5 11 7 5 6 11 27 24 46 54 67 71 73 82 79 76 71 68 65 59 57 55 56 57 55 50 47 44 39 36 33 30 27 26 22 16 19 21 22 22 26 23 19
6 10 6 7 8 6 8 8 8 10 8 8 12 17 31 43 46 59 70 72 72 75 69 63 66 61 56 57 56 62 61 55 53 53 48 43 38 34 32 38 34 26 23 27 26 21 21 20 25
5 5 14 11 6 9 3 11 10 15 4 11 13 24 18 32 43 51 59 75 75 69 63 60 66 65 59 54 54 60 67 63 56 58 47 49 43 39 30 36 42 37 30 29 29 26 27 24 24
6 7 9 9 6 3 6 10 6 17 3 10 9 10 28 25 39 35 46 53 76 72 71 71 68 66 64 54 55 55 61 69 62 59 56 54 50 45 35 30 42 37 34 28 29 27 27 26 26
Wind_Direction_850mb
42 341 349 302 64 56 27 37 101 116 152 189 149 126 115 57 50 177 138 142 145 135 132 133 132 131 134 133 139 146 150 143 144 144 138 129 133 156 142 130 124 127 123 123 118 114 112 110 107
75 16 13 3 83 73 34 16 104 154 121 121 88 115 55 64 99 140 145 139 132 126 122 121 119 118 118 123 119 120 137 141 138 137 130 126 120 122 133 127 124 127 126 122 120 115 107 104 112
56 62 68 73 37 64 110 80 84 119 109 117 98 73 79 91 130 144 151 139 131 129 127 121 114 114 116 113 118 117 123 128 132 131 124 123 118 125 127 126 127 134 131 133 131 119 116 116 114
172 101 68 69 56 36 80 48 133 151 87 97 113 76 82 290 138 152 153 145 137 130 129 126 129 128 114 107 104 114 118 118 124 126 117 118 121 116 124 126 126 130 135 137 131 124 119 113 106
53 51 63 70 36 359 11 3 359 224 84 97 113 103 98 149 149 150 157 157 151 144 140 135 134 130 127 123 119 117 120 119 122 119 118 116 104 107 116 123 127 130 135 135 135 130 122 114 111
51 32 69 53 40 2 34 329 323 124 113 109 101 100 76 160 155 150 156 160 160 152 146 141 137 129 123 123 124 123 117 114 115 111 111 112 100 104 107 110 121 124 127 137 136 132 131 120 104
93 46 108 120 93 336 32 292 262 138 128 113 126 86 145 158 161 151 152 164 163 155 145 143 135 138 136 132 128 120 120 111 115 118 118 104 102 101 105 111 113 117 126 135 137 136 125 113 108
91 84 119 135 169 215 162 217 102 128 81 133 121 153 170 165 162 160 161 162 160 155 154 148 143 141 146 141 137 134 130 124 117 121 118 109 103 103 104 105 110 121 124 129 134 137 129 118 115
67 58 206 157 153 193 182 262 103 124 137 158 240 159 158 156 158 163 162 163 163 160 156 149 146 142 142 144 141 139 131 130 123 123 124 119 113 107 107 111 119 117 117 121 129 140 134 134 126
144 136 221 167 153 134 107 307 144 122 177 111 132 151 158 159 163 158 162 166 167 163 158 153 150 150 147 143 133 136 137 137 132 133 129 127 124 120 113 113 111 111 115 121 129 139 148 147 145
104 216 128 106 135 124 121 262 164 166 226 165 153 158 162 165 167 164 162 163 161 162 161 156 155 150 143 136 135 131 131 135 137 137 136 136 127 117 114 108 111 114 118 123 128 132 135 140 131
112 280 147 130 133 147 157 283 220 187 187 173 162 162 166 171 174 172 165 163 165 163 157 158 156 157 152 151 148 145 138 150 152 148 141 137 123 112 111 118 121 118 122 128 121 117 104 94 327
75 63 96 129 141 132 157 357 8 88 159 175 165 165 172 174 179 177 175 171 167 167 166 160 155 158 168 176 166 147 142 161 159 151 144 137 131 131 124 122 130 121 129 107 94 84 82 78 93
116 102 117 120 121 137 159 206 106 161 152 161 166 170 179 178 182 182 181 175 179 170 171 164 160 162 169 176 158 148 142 150 152 155 145 143 173 159 144 133 137 141 144 120 102 92 82 79 68
120 95 33 142 107 140 131 77 99 147 161 164 171 174 182 187 184 187 184 174 181 185 186 186 180 192 195 194 188 191 160 175 190 182 163 180 166 177 176 152 154 144 144 142 133 114 118 94 64
47 353 14 136 76 129 155 175 166 183 173 178 182 190 187 186 196 190 195 181 169 172 180 185 182 201 199 201 202 207 192 159 137 185 179 176 174 164 166 165 161 150 149 149 136 123 115 125 165
15 247 317 347 156 55 133 146 175 162 171 175 176 175 188 185 194 199 192 185 173 167 160 170 174 163 165 170 181 181 174 167 156 139 156 143 161 153 163 164 171 159 163 165 155 139 153 172 155
195 200 236 260 124 140 89 118 226 172 195 157 168 173 178 185 183 191 192 186 183 177 163 171 172 172 170 170 183 188 182 187 170 151 141 143 155 161 154 166 167 158 164 179 191 191 200 233 207
175 145 173 212 154 126 197 220 185 220 165 201 151 167 176 186 190 185 191 190 188 185 175 178 182 188 192 183 187 195 178 166 174 158 166 145 153 149 157 165 172 155 153 145 161 150 123 159 203
180 138 207 234 183 188 171 210 186 180 196 207 200 171 171 181 179 184 190 195 194 188 183 180 185 200 202 200 202 201 181 179 177 159 173 166 162 156 153 177 185 181 196 215 177 158 134 168 182
162 188 190 181 174 28 334 331 156 200 201 191 220 202 187 186 182 186 195 201 198 193 191 189 188 196 201 203 207 199 196 209 212 192 180 164 154 162 163 187 197 193 194 216 236 169 176 148 158
218 166 170 136 89 200 337 284 294 159 184 190 201 209 211 197 192 199 196 198 201 202 199 199 191 191 197 202 217 211 201 201 198 203 206 194 175 182 179 194 187 194 211 225 223 221 221 196 194
226 160 161 110 66 57 298 86 269 118 196 204 217 213 213 206 202 196 197 198 197 201 200 202 199 197 199 208 210 211 207 208 196 213 210 210 195 195 191 222 175 169 195 204 213 222 199 176 121
103 85 47 55 36 357 250 133 309 355 326 245 202 198 212 209 201 202 202 199 200 201 201 202 201 204 208 208 207 204 209 208 214 219 206 200 202 210 202 177 188 190 191 192 197 213 205 217 215
74 78 38 10 19 222 126 113 247 265 267 275 198 202 204 208 205 196 197 200 202 203 206 205 208 211 211 210 211 212 210 213 213 213 221 212 211 211 206 194 188 201 206 205 216 215 214 213 212
129 143 149 173 195 252 142 230 255 207 250 63 193 210 196 198 204 204 198 200 201 208 209 209 212 215 217 218 218 221 218 215 219 220 219 226 226 223 216 215 198 201 209 204 202 213 223 231 233
185 83 162 103 7 55 273 291 278 204 224 16 126 156 188 196 203 204 203 202 205 210 216 217 217 220 223 223 225 221 222 220 217 220 221 222 228 231 227 212 210 215 208 212 215 232 242 241 237
126 156 79 21 137 218 291 280 244 253 239 137 59 119 184 197 200 210 209 207 212 215 218 220 223 222 226 226 228 224 224 227 221 223 231 226 221 219 236 225 225 225 230 230 233 240 256 255 249
9 78 55 106 103 151 172 268 223 242 137 113 161 139 150 186 203 214 215 217 219 213 218 222 222 222 222 228 229 227 225 227 226 225 227 215 217 224 239 242 231 227 233 235 242 253 262 258 257
164 127 126 116 221 104 135 272 265 252 72 79 258 184 121 153 189 210 220 230 221 220 222 231 226 229 225 225 226 230 226 226 229 225 225 221 224 230 237 244 217 227 234 237 244 252 258 260 272